Tracking 19245 objects as of 21-Aug-2018
HD Live streaming from Space Station
objects crossing your sky now

FENGYUN 1C DEB

Track FENGYUN 1C DEB now!
10-day predictions


NORAD ID: 30355
Int'l Code: 1999-025ABS
Perigee: 815.4 km
Apogee: 898.4 km
Inclination: 98.8 °
Period: 101.9 minutes
Semi major axis: 7227 km
RCS: 0.025 m2 (small)
Launch date: May 10, 1999
Source: People's Republic of China (PRC)
Launch site: Taiyaun Space Center, China (TSC)

Note: This is SATELLITE DEBRIS
aabbcc
Your satellite tracking list
Your tracking list is empty




NASA's NSSDC Master Catalog

Two Line Element Set (TLE):
1 30355U 99025ABS 18233.07464105  .00000200  00000-0  12910-3 0  9993
2 30355  98.8029 276.9564 0057455  23.8588  34.3840 14.12809660596035
Source of the keplerian elements: AFSPC